TimeEST,TemperatureF,Dew PointF,Humidity,Sea Level PressureIn,VisibilityMPH,Wind Direction,Wind SpeedMPH,Gust SpeedMPH,PrecipitationIn,Events,Conditions,WindDirDegrees,DateUTC
12:00 AM,6.8,6.8,100,29.63,10.0,WNW,28.8,40.3,N/A,,Overcast,290,2000-12-31 05:00:00
12:21 AM,6.8,3.2,85,29.64,10.0,WNW,29.9,39.1,N/A,,Mostly Cloudy,300,2000-12-31 05:21:00
12:39 AM,6.8,5.0,92,29.65,10.0,WNW,26.5,34.5,N/A,,Mostly Cloudy,290,2000-12-31 05:39:00
1:00 AM,6.8,5.0,92,29.64,10.0,WNW,27.6,35.7,N/A,,Overcast,290,2000-12-31 06:00:00
1:19 AM,6.8,5.0,92,29.65,10.0,WNW,25.3,39.1,N/A,,Overcast,290,2000-12-31 06:19:00
1:39 AM,6.8,6.8,100,29.65,10.0,WNW,21.9,36.8,N/A,,Overcast,300,2000-12-31 06:39:00
1:59 AM,-9999,-9999,N/A,29.66,10.0,WNW,20.7,35.7,N/A,,Overcast,300,2000-12-31 06:59:00
2:19 AM,6.8,6.8,100,29.66,10.0,WNW,24.2,33.4,N/A,,Overcast,300,2000-12-31 07:19:00
2:39 AM,6.8,6.8,100,29.66,7.0,WNW,31.1,43.7,N/A,,Overcast,300,2000-12-31 07:39:00
2:59 AM,6.8,6.8,100,29.68,10.0,WNW,26.5,39.1,N/A,,Overcast,290,2000-12-31 07:59:00
3:19 AM,6.8,6.8,100,29.69,10.0,WNW,26.5,34.5,N/A,,Overcast,300,2000-12-31 08:19:00
3:40 AM,6.8,6.8,100,29.70,10.0,WNW,23.0,34.5,N/A,,Overcast,300,2000-12-31 08:40:00
4:01 AM,6.8,6.8,100,29.70,10.0,WNW,27.6,35.7,N/A,,Overcast,300,2000-12-31 09:01:00
4:20 AM,6.8,6.8,100,29.70,10.0,WNW,28.8,34.5,N/A,,Overcast,300,2000-12-31 09:20:00
4:39 AM,6.8,6.8,100,29.70,10.0,WNW,29.9,35.7,N/A,,Mostly Cloudy,300,2000-12-31 09:39:00
5:00 AM,6.8,6.8,100,29.70,10.0,WNW,28.8,36.8,N/A,,Mostly Cloudy,300,2000-12-31 10:00:00
5:19 AM,6.8,6.8,100,29.71,10.0,WNW,32.2,39.1,N/A,,Mostly Cloudy,300,2000-12-31 10:19:00
5:39 AM,6.8,6.8,100,29.72,10.0,WNW,26.5,34.5,N/A,,Overcast,300,2000-12-31 10:39:00
5:59 AM,6.8,6.8,100,29.73,10.0,NW,26.5,34.5,N/A,,Overcast,310,2000-12-31 10:59:00
6:19 AM,6.8,6.8,100,29.74,10.0,WNW,27.6,38.0,N/A,,Overcast,290,2000-12-31 11:19:00
6:41 AM,6.8,6.8,100,29.75,10.0,WNW,26.5,35.7,N/A,,Overcast,300,2000-12-31 11:41:00
6:59 AM,8.6,8.6,100,29.76,10.0,WNW,28.8,34.5,N/A,,Overcast,290,2000-12-31 11:59:00
7:19 AM,8.6,8.6,100,29.77,10.0,WNW,24.2,33.4,N/A,,Overcast,290,2000-12-31 12:19:00
7:39 AM,8.6,8.6,100,29.79,10.0,WNW,25.3,33.4,N/A,,Overcast,290,2000-12-31 12:39:00
7:59 AM,8.6,8.6,100,29.79,10.0,WNW,25.3,-,N/A,,Overcast,290,2000-12-31 12:59:00
8:19 AM,8.6,8.6,100,29.79,10.0,WNW,25.3,33.4,N/A,,Overcast,300,2000-12-31 13:19:00
8:39 AM,10.4,10.4,100,29.81,7.0,WNW,27.6,33.4,N/A,,Overcast,300,2000-12-31 13:39:00
8:59 AM,10.4,8.6,92,29.82,5.0,WNW,25.3,32.2,N/A,,Overcast,290,2000-12-31 13:59:00
9:19 AM,10.4,8.6,92,29.82,4.0,WNW,25.3,31.1,N/A,,Overcast,300,2000-12-31 14:19:00
9:39 AM,10.4,10.4,100,29.83,5.0,WNW,23.0,34.5,N/A,,Overcast,290,2000-12-31 14:39:00
9:59 AM,10.4,10.4,100,29.84,7.0,WNW,29.9,33.4,N/A,,Overcast,290,2000-12-31 14:59:00
10:19 AM,12.2,10.4,92,29.84,7.0,WNW,28.8,35.7,N/A,,Overcast,290,2000-12-31 15:19:00
10:39 AM,12.2,10.4,92,29.84,10.0,WNW,24.2,31.1,N/A,,Overcast,290,2000-12-31 15:39:00
10:59 AM,12.2,10.4,92,29.84,10.0,WNW,26.5,35.7,N/A,,Overcast,290,2000-12-31 15:59:00
11:19 AM,14.0,10.4,86,29.84,10.0,WNW,27.6,33.4,N/A,,Overcast,300,2000-12-31 16:19:00
11:39 AM,14.0,10.4,86,29.84,10.0,WNW,26.5,35.7,N/A,,Overcast,300,2000-12-31 16:39:00
11:59 AM,14.0,10.4,86,29.84,10.0,WNW,21.9,32.2,N/A,,Overcast,300,2000-12-31 16:59:00
12:21 PM,14.0,10.4,86,29.84,10.0,WNW,21.9,34.5,N/A,,Overcast,300,2000-12-31 17:21:00
12:39 PM,15.8,10.4,79,29.84,10.0,WNW,28.8,41.4,N/A,,Overcast,300,2000-12-31 17:39:00
12:59 PM,15.8,12.2,86,29.84,10.0,WNW,25.3,33.4,N/A,,Overcast,300,2000-12-31 17:59:00
1:21 PM,15.8,12.2,86,29.84,10.0,WNW,25.3,36.8,N/A,,Overcast,300,2000-12-31 18:21:00
1:39 PM,15.8,10.4,79,29.84,10.0,WNW,24.2,35.7,N/A,,Mostly Cloudy,300,2000-12-31 18:39:00
1:59 PM,17.6,12.2,79,29.84,10.0,WNW,23.0,34.5,N/A,,Scattered Clouds,300,2000-12-31 18:59:00
2:19 PM,17.6,8.6,68,29.84,10.0,WNW,23.0,40.3,N/A,,Scattered Clouds,290,2000-12-31 19:19:00
2:39 PM,17.6,10.4,73,29.85,10.0,WNW,26.5,44.9,N/A,,Mostly Cloudy,290,2000-12-31 19:39:00
2:59 PM,17.6,10.4,73,29.84,10.0,WNW,28.8,38.0,N/A,,Mostly Cloudy,290,2000-12-31 19:59:00
3:20 PM,15.8,8.6,73,29.84,10.0,WNW,28.8,35.7,N/A,,Scattered Clouds,290,2000-12-31 20:20:00
3:39 PM,17.6,8.6,68,29.86,10.0,WNW,21.9,36.8,N/A,,Mostly Cloudy,290,2000-12-31 20:39:00
3:59 PM,15.8,6.8,68,29.88,10.0,NW,19.6,35.7,N/A,,Mostly Cloudy,310,2000-12-31 20:59:00
4:19 PM,15.8,6.8,68,29.88,10.0,WNW,24.2,34.5,N/A,,Overcast,300,2000-12-31 21:19:00
4:39 PM,14.0,8.6,79,29.89,10.0,NW,20.7,34.5,N/A,,Overcast,310,2000-12-31 21:39:00
4:59 PM,14.0,8.6,79,29.89,10.0,WNW,24.2,36.8,N/A,,Overcast,300,2000-12-31 21:59:00
5:19 PM,12.2,8.6,85,29.90,10.0,NW,20.7,34.5,N/A,,Overcast,310,2000-12-31 22:19:00
5:39 PM,12.2,8.6,85,29.91,10.0,NW,24.2,31.1,N/A,,Mostly Cloudy,310,2000-12-31 22:39:00
5:59 PM,12.2,8.6,85,29.92,10.0,WNW,21.9,35.7,N/A,,Mostly Cloudy,300,2000-12-31 22:59:00
6:19 PM,12.2,8.6,85,29.92,10.0,WNW,25.3,34.5,N/A,,Scattered Clouds,300,2000-12-31 23:19:00
6:39 PM,12.2,8.6,85,29.93,10.0,WNW,24.2,34.5,N/A,,Scattered Clouds,300,2000-12-31 23:39:00
6:59 PM,12.2,8.6,85,29.93,10.0,WNW,27.6,34.5,N/A,,Scattered Clouds,300,2000-12-31 23:59:00
7:19 PM,12.2,8.6,85,29.92,10.0,WNW,26.5,36.8,N/A,,Scattered Clouds,300,2001-01-01 00:19:00
7:39 PM,12.2,8.6,85,29.93,10.0,WNW,25.3,33.4,N/A,,Scattered Clouds,300,2001-01-01 00:39:00
7:59 PM,12.2,10.4,92,29.91,10.0,WNW,23.0,36.8,N/A,,Scattered Clouds,300,2001-01-01 00:59:00
8:19 PM,12.2,10.4,92,29.92,10.0,WNW,23.0,33.4,N/A,,Scattered Clouds,300,2001-01-01 01:19:00
8:39 PM,12.2,10.4,92,29.93,10.0,NW,26.5,36.8,N/A,,Mostly Cloudy,310,2001-01-01 01:39:00
8:59 PM,12.2,10.4,92,29.94,10.0,WNW,20.7,31.1,N/A,,Mostly Cloudy,300,2001-01-01 01:59:00
9:19 PM,12.2,10.4,92,29.95,10.0,WNW,19.6,29.9,N/A,,Overcast,300,2001-01-01 02:19:00
9:39 PM,12.2,10.4,92,29.96,10.0,WNW,20.7,26.5,N/A,,Overcast,300,2001-01-01 02:39:00
9:59 PM,12.2,10.4,92,29.96,10.0,WNW,20.7,26.5,N/A,,Overcast,300,2001-01-01 02:59:00
10:19 PM,12.2,10.4,92,29.96,10.0,NW,20.7,29.9,N/A,,Overcast,310,2001-01-01 03:19:00
10:41 PM,12.2,10.4,92,29.97,7.0,WNW,17.3,29.9,N/A,,Overcast,300,2001-01-01 03:41:00
10:59 PM,12.2,10.4,92,29.97,10.0,WNW,17.3,31.1,N/A,,Overcast,300,2001-01-01 03:59:00
11:19 PM,12.2,10.4,92,29.98,10.0,WNW,13.8,27.6,N/A,,Overcast,300,2001-01-01 04:19:00
11:39 PM,12.2,10.4,92,29.98,10.0,WNW,17.3,25.3,N/A,,Overcast,300,2001-01-01 04:39:00